Location: Borea
(45.6167°N, 23.0167°E)
Time: 22:20:01
(UTC+00:00)

FENGYUN 1C DEB - Visible Passes

Search period start: 21 February 2024 00:00
Search period end: 02 March 2024 00:00
Orbit: 575 x 674 km, 99.3° (Epoch: 19 February)

Date Brightness Start Highest point End Pass type
(mag) Time Alt. Az. Time Alt. Az. Time Alt. Az.
21 Feb ? 02:32:54 10° NNE 02:36:44 50° ENE 02:36:44 50° ENE visible
21 Feb ? 04:09:51 10° NNW 04:13:02 19° WNW 04:14:00 18° WNW visible
22 Feb ? 02:51:16 10° NNE 02:55:37 78° NE 02:55:37 78° NE visible
22 Feb ? 04:29:02 10° NNW 04:31:14 13° WNW 04:32:53 11° W visible
23 Feb ? 01:35:15 10° ENE 01:37:10 14° E 01:37:10 14° E visible
23 Feb ? 03:09:39 10° N 03:14:12 65° WNW 03:14:25 64° W visible
24 Feb ? 01:52:43 10° NE 01:55:53 21° E 01:55:53 21° E visible
24 Feb ? 03:28:03 10° N 03:32:24 44° WNW 03:33:08 40° W visible
25 Feb ? 02:10:27 10° NE 02:14:29 31° E 02:14:30 31° E visible
25 Feb ? 03:46:27 10° N 03:50:26 30° WNW 03:51:44 26° W visible
26 Feb ? 02:28:16 10° NNE 02:32:39 46° E 02:33:02 44° ESE visible
26 Feb ? 04:04:54 10° NNW 04:08:20 22° WNW 04:10:16 17° W visible
27 Feb ? 02:46:09 10° NNE 02:50:41 69° ESE 02:51:29 55° SSE visible
27 Feb ? 04:23:28 10° NNW 04:26:07 16° WNW 04:28:42 10° W visible
28 Feb ? 01:30:36 10° ENE 01:31:59 11° E 01:32:37 11° E visible
28 Feb ? 03:04:03 10° NNE 03:08:35 80° WNW 03:09:50 47° SSW visible
29 Feb ? 01:47:06 10° NE 01:50:00 17° E 01:50:53 16° ESE visible
29 Feb ? 03:21:56 10° N 03:26:20 54° WNW 03:28:05 32° SW visible
01 Mar ? 02:04:13 10° NE 02:07:53 24° E 02:09:03 22° ESE visible
01 Mar ? 03:39:50 10° N 03:43:58 37° WNW 03:46:16 21° WSW visible
